When you browse on this site, cookies collect data to enhance your experience and personalize the content and advertising you see.
Visit our Privacy Policy to learn more. By continuing to use the site, you agree to this use of cookies and data.
  • In Hungary
  • List of Countries
  • For 7 days
  • Water Temperature
  • Weather Map
  • News
  • Weather Widgets
  • user-avatar
    Login

    Hourly Weather Semenovka

    Today, 21 October, Monday

    Time Temperature Precipitation Wind Pressure Humidity
    00:00 +10°C° 0 mm 3 mps 746 mmHg 82%
    01:00 +10°C° 0 mm 3 mps 746 mmHg 83%
    02:00 +10°C° 0 mm 3 mps 746 mmHg 86%
    03:00 +10°C° 0 mm 3 mps 746 mmHg 87%
    04:00 +10°C° 0 mm 3 mps 746 mmHg 88%
    05:00 +10°C° 0 mm 3 mps 745 mmHg 89%
    06:00 +10°C° 0 mm 3 mps 746 mmHg 88%
    07:00 +10°C° 0 mm 3 mps 746 mmHg 87%
    08:00 +11°C° 0 mm 3 mps 746 mmHg 85%
    09:00 +12°C° 0 mm 3 mps 746 mmHg 82%
    10:00 +13°C° 0 mm 4 mps 745 mmHg 79%
    11:00 +14°C° 0 mm 4 mps 745 mmHg 76%
    12:00 +15°C° 0 mm 4 mps 745 mmHg 75%
    13:00 +15°C° 0 mm 4 mps 745 mmHg 74%
    14:00 +17°C° 0 mm 4 mps 746 mmHg 73%
    15:00 +16°C° 0 mm 3 mps 745 mmHg 79%
    16:00 +13°C° 0 mm 3 mps 745 mmHg 84%
    17:00 +13°C° 0 mm 2 mps 745 mmHg 90%
    18:00 +13°C° 0 mm 2 mps 745 mmHg 91%
    19:00 +13°C° 0 mm 2 mps 746 mmHg 92%
    20:00 +12°C° 0 mm 2 mps 746 mmHg 93%
    21:00 +12°C° 0 mm 1 mps 746 mmHg 94%
    22:00 +12°C° 0 mm 1 mps 746 mmHg 95%
    23:00 +12°C° 0 mm 1 mps 746 mmHg 95%

    Tomorrow, 22 October, Tuesday

    Time Temperature Precipitation Wind Pressure Humidity
    00:00 +12°C° 0 mm 1 mps 746 mmHg 96%
    01:00 +12°C° 0 mm 1 mps 747 mmHg 96%
    02:00 +12°C° 0 mm 1 mps 747 mmHg 96%
    03:00 +11°C° 0 mm 1 mps 747 mmHg 96%
    04:00 +11°C° 0 mm 1 mps 747 mmHg 96%
    05:00 +10°C° 0 mm 1 mps 747 mmHg 96%
    06:00 +11°C° 0 mm 1 mps 748 mmHg 94%
    07:00 +11°C° 0 mm 1 mps 748 mmHg 93%
    08:00 +11°C° 0 mm 1 mps 748 mmHg 92%
    09:00 +12°C° 0 mm 1 mps 748 mmHg 87%
    10:00 +14°C° 0 mm 1 mps 748 mmHg 83%
    11:00 +15°C° 0 mm 1 mps 748 mmHg 79%
    12:00 +15°C° 0 mm 1 mps 748 mmHg 78%
    13:00 +16°C° 0 mm 1 mps 748 mmHg 78%
    14:00 +16°C° 0 mm 2 mps 748 mmHg 78%
    15:00 +15°C° 0 mm 2 mps 748 mmHg 82%
    16:00 +14°C° 0 mm 2 mps 747 mmHg 87%
    17:00 +13°C° 0 mm 2 mps 747 mmHg 92%
    18:00 +13°C° 0 mm 2 mps 747 mmHg 93%
    19:00 +13°C° 0 mm 2 mps 747 mmHg 93%
    20:00 +12°C° 0 mm 2 mps 747 mmHg 94%
    21:00 +12°C° 0 mm 2 mps 747 mmHg 94%
    22:00 +11°C° 0 mm 3 mps 746 mmHg 94%
    23:00 +11°C° 0 mm 3 mps 746 mmHg 94%

    Day after tomorrow, 23 October, Wednesday

    Time Temperature Precipitation Wind Pressure Humidity
    00:00 +11°C° 0 mm 3 mps 746 mmHg 94%
    01:00 +11°C° 0 mm 3 mps 746 mmHg 95%
    02:00 +10°C° 0 mm 2 mps 746 mmHg 95%
    03:00 +10°C° 0 mm 2 mps 745 mmHg 95%
    04:00 +10°C° 0 mm 2 mps 745 mmHg 96%
    05:00 +10°C° 0 mm 2 mps 745 mmHg 96%
    06:00 +10°C° 0 mm 2 mps 745 mmHg 95%
    07:00 +10°C° 0 mm 2 mps 745 mmHg 95%
    08:00 +12°C° 0 mm 2 mps 745 mmHg 95%
    09:00 +13°C° 0 mm 2 mps 745 mmHg 90%
    10:00 +13°C° 0 mm 3 mps 744 mmHg 86%
    11:00 +14°C° 0 mm 3 mps 744 mmHg 82%
    12:00 +16°C° 0 mm 3 mps 744 mmHg 81%
    13:00 +16°C° 0 mm 3 mps 744 mmHg 79%
    14:00 +16°C° 0 mm 3 mps 744 mmHg 78%
    15:00 +14°C° 0 mm 3 mps 744 mmHg 83%
    16:00 +14°C° 0 mm 2 mps 744 mmHg 88%
    17:00 +13°C° 0 mm 2 mps 744 mmHg 92%
    18:00 +12°C° 0 mm 2 mps 745 mmHg 91%
    19:00 +12°C° 0 mm 2 mps 745 mmHg 90%
    20:00 +10°C° 0 mm 2 mps 745 mmHg 89%
    21:00 +10°C° 0 mm 2 mps 746 mmHg 88%
    22:00 +9°C° 0 mm 2 mps 746 mmHg 87%
    23:00 +9°C° 0 mm 2 mps 746 mmHg 86%

    24 October, Thursday

    Time Temperature Precipitation Wind Pressure Humidity
    00:00 +9°C° 0 mm 2 mps 746 mmHg 85%
    01:00 +9°C° 0 mm 2 mps 746 mmHg 84%
    02:00 +10°C° 0 mm 1 mps 747 mmHg 83%
    03:00 +10°C° 0 mm 1 mps 747 mmHg 82%
    04:00 +10°C° 0 mm 1 mps 747 mmHg 81%
    05:00 +10°C° 0 mm 1 mps 747 mmHg 80%
    06:00 +10°C° 0 mm 1 mps 747 mmHg 79%
    07:00 +10°C° 0 mm 1 mps 747 mmHg 78%
    08:00 +10°C° 0 mm 1 mps 747 mmHg 77%
    09:00 +11°C° 0 mm 1 mps 747 mmHg 75%
    10:00 +11°C° 0 mm 1 mps 747 mmHg 73%
    11:00 +11°C° 0 mm 1 mps 747 mmHg 71%
    12:00 +11°C° 0 mm 1 mps 748 mmHg 70%
    13:00 +11°C° 0 mm 1 mps 748 mmHg 68%
    14:00 +12°C° 0 mm 1 mps 748 mmHg 67%
    15:00 +11°C° 0 mm 1 mps 747 mmHg 71%
    16:00 +10°C° 0 mm 1 mps 747 mmHg 74%
    17:00 +9°C° 0 mm 1 mps 747 mmHg 78%
    18:00 +9°C° 0 mm 1 mps 747 mmHg 80%
    19:00 +8°C° 0 mm 1 mps 748 mmHg 82%
    20:00 +8°C° 0 mm 1 mps 748 mmHg 84%
    21:00 +7°C° 0 mm 1 mps 748 mmHg 85%
    22:00 +7°C° 0 mm 1 mps 748 mmHg 87%
    23:00 +7°C° 0 mm 1 mps 748 mmHg 88%

    25 October, Friday

    Time Temperature Precipitation Wind Pressure Humidity
    00:00 +7°C° 0 mm 1 mps 748 mmHg 89%
    01:00 +6°C° 0 mm 1 mps 748 mmHg 90%
    02:00 +6°C° 0 mm 1 mps 748 mmHg 90%
    03:00 +6°C° 0 mm 1 mps 748 mmHg 91%
    04:00 +6°C° 0 mm 1 mps 748 mmHg 91%
    05:00 +6°C° 0 mm 1 mps 748 mmHg 92%
    06:00 +6°C° 0 mm 1 mps 748 mmHg 91%
    07:00 +6°C° 0 mm 1 mps 748 mmHg 90%
    08:00 +6°C° 0 mm 2 mps 748 mmHg 89%
    09:00 +7°C° 0 mm 2 mps 748 mmHg 83%
    10:00 +9°C° 0 mm 2 mps 748 mmHg 78%
    11:00 +10°C° 0 mm 2 mps 748 mmHg 73%
    12:00 +12°C° 0 mm 2 mps 748 mmHg 72%
    13:00 +12°C° 0 mm 2 mps 748 mmHg 71%
    14:00 +13°C° 0 mm 2 mps 747 mmHg 70%
    15:00 +12°C° 0 mm 2 mps 747 mmHg 77%
    16:00 +10°C° 0 mm 2 mps 747 mmHg 83%
    17:00 +9°C° 0 mm 2 mps 746 mmHg 90%
    18:00 +8°C° 0 mm 2 mps 746 mmHg 91%
    19:00 +8°C° 0 mm 2 mps 746 mmHg 92%
    20:00 +8°C° 0 mm 2 mps 746 mmHg 92%
    21:00 +8°C° 0 mm 3 mps 746 mmHg 92%
    22:00 +8°C° 0 mm 3 mps 746 mmHg 92%
    23:00 +8°C° 0 mm 3 mps 746 mmHg 92%

    26 October, Saturday

    Time Temperature Precipitation Wind Pressure Humidity
    00:00 +8°C° 0 mm 3 mps 746 mmHg 92%
    01:00 +8°C° 0 mm 3 mps 746 mmHg 92%
    02:00 +8°C° 0 mm 3 mps 745 mmHg 92%
    03:00 +8°C° 0 mm 3 mps 745 mmHg 93%
    04:00 +8°C° 0 mm 3 mps 745 mmHg 95%
    05:00 +8°C° 0 mm 3 mps 745 mmHg 96%
    06:00 +8°C° 0 mm 3 mps 745 mmHg 96%
    07:00 +9°C° 0 mm 3 mps 746 mmHg 96%
    08:00 +9°C° 0 mm 3 mps 746 mmHg 96%
    09:00 +10°C° 0 mm 3 mps 746 mmHg 93%
    10:00 +10°C° 0 mm 3 mps 746 mmHg 91%
    11:00 +11°C° 0 mm 3 mps 746 mmHg 89%
    12:00 +11°C° 0 mm 3 mps 746 mmHg 87%
    13:00 +11°C° 0 mm 3 mps 746 mmHg 85%
    14:00 +11°C° 0 mm 3 mps 746 mmHg 84%
    15:00 +10°C° 0 mm 3 mps 746 mmHg 85%
    16:00 +10°C° 0 mm 2 mps 746 mmHg 86%
    17:00 +9°C° 0 mm 2 mps 746 mmHg 87%
    18:00 +8°C° 0 mm 2 mps 746 mmHg 89%
    19:00 +8°C° 0 mm 2 mps 746 mmHg 92%
    20:00 +8°C° 0 mm 1 mps 746 mmHg 94%
    21:00 +7°C° 0 mm 2 mps 746 mmHg 94%
    22:00 +7°C° 0 mm 2 mps 746 mmHg 94%
    23:00 +7°C° 0 mm 2 mps 746 mmHg 94%

    27 October, Sunday

    Time Temperature Precipitation Wind Pressure Humidity
    00:00 +6°C° 0 mm 2 mps 746 mmHg 94%
    01:00 +6°C° 0 mm 2 mps 746 mmHg 94%
    02:00 +6°C° 0 mm 2 mps 745 mmHg 94%
    03:00 +6°C° 0 mm 2 mps 745 mmHg 94%
    04:00 +6°C° 0 mm 2 mps 745 mmHg 94%
    05:00 +6°C° 0 mm 2 mps 744 mmHg 94%
    06:00 +5°C° 0 mm 3 mps 744 mmHg 95%
    07:00 +7°C° 0 mm 3 mps 744 mmHg 95%
    08:00 +7°C° 0 mm 4 mps 744 mmHg 95%
    09:00 +8°C° 0 mm 4 mps 743 mmHg 89%
    10:00 +10°C° 0 mm 5 mps 743 mmHg 83%
    11:00 +13°C° 0 mm 5 mps 742 mmHg 77%
    12:00 +14°C° 0 mm 5 mps 742 mmHg 74%
    13:00 +14°C° 0 mm 6 mps 741 mmHg 72%
    14:00 +15°C° 0 mm 6 mps 740 mmHg 69%
    15:00 +14°C° 0 mm 5 mps 740 mmHg 73%
    16:00 +13°C° 0 mm 5 mps 740 mmHg 77%
    17:00 +12°C° 0 mm 4 mps 740 mmHg 81%
    18:00 +11°C° 0 mm 4 mps 740 mmHg 84%
    19:00 +11°C° 0 mm 4 mps 740 mmHg 87%
    20:00 +11°C° 0 mm 3 mps 740 mmHg 90%
    21:00 +10°C° 0 mm 4 mps 740 mmHg 86%
    22:00 +10°C° 0 mm 4 mps 740 mmHg 83%
    23:00 +8°C° 0 mm 5 mps 740 mmHg 80%
    Show more